Change the Weather History Date:

Thursday, July 18, 2013

  Actual Average (KBOI) Record (KBOI)
Temperature  
Mean Temperature 78 °F 77 °F  
Max Temperature 98 °F 92 °F 106 °F (2009)
Min Temperature 59 °F 61 °F 42 °F (1993)
Degree Days  
Heating Degree Days 0 0  
Month to date heating degree days 4  
Since 1 June heating degree days 68  
Since 1 July heating degree days 4  
Cooling Degree Days 14 12  
Month to date cooling degree days 180  
Year to date cooling degree days 363  
Since 1 June cooling degree days 319  
Growing Degree Days 28 (Base 50)    
Moisture  
Dew Point 40 °F    
Average Humidity 29    
Maximum Humidity 67    
Minimum Humidity 6    
Precipitation  
Precipitation 0.00 in 0.01 in 0.24 in (1978)
Month to date precipitation 0.21  
Year to date precipitation 7.14  
Snow  
Snow 0.00 in 0.00 in 0.00 in (2006)
Month to date snowfall 0.0  
Since 1 July snowfall 0.0  
Snow Depth -    
Sea Level Pressure  
Sea Level Pressure 30.05 in    
Wind  
Wind Speed 5 mph (NW)    
Max Wind Speed 12 mph    
Max Gust Speed -    
Visibility 10 miles    
Events      
T = Trace of Precipitation, MM = Missing Value Source: NWS Daily Summary

Daily Weather History Graph

Daily Weather History Graph

Search for Another Location

Airport or City:

Trip Planner

Search our weather history database for the weather conditions in past years. The results will help you decide how hot, cold, wet, or windy it might be!

Date:

Astronomy

Jul. 18, 2013 Rise Set
Actual Time 6:21 AM MDT 9:22 PM MDT
Civil Twilight 5:47 AM MDT 9:56 PM MDT
Nautical Twilight 5:03 AM MDT 10:40 PM MDT
Astronomical Twilight 4:11 AM MDT 11:31 PM MDT
Moon 5:23 PM MDT (7/18) 2:17 AM MDT (7/18)
Length of Visible Light 16h 09m
Length of Day
15h 00m
Waxing Gibbous, 78% of the Moon is Illuminated
Jul 18
Waxing Gibbous
Jul 22
Full
Jul 29
Last Quarter
Aug 6
New
Aug 14
First Quarter

Hourly Weather History & Observations

Time (MDT) Temp. Dew Point Humidity Pressure Visibility Wind Dir Wind Speed Gust Speed Precip Events Conditions
12:15 AM 71.6 °F 46.4 °F 41% 30.03 in 10.0 mi WNW 4.6 mph - N/A   Clear
12:35 AM 68.0 °F 44.6 °F 43% 30.03 in 10.0 mi Calm Calm - N/A   Clear
12:55 AM 68.0 °F 44.6 °F 43% 30.03 in 10.0 mi Calm Calm - N/A   Clear
1:15 AM 64.4 °F 48.2 °F 56% 30.04 in 10.0 mi Calm Calm - N/A   Unknown
1:35 AM 68.0 °F 46.4 °F 46% 30.04 in 10.0 mi West 3.5 mph - N/A   Clear
1:55 AM 71.6 °F 44.6 °F 38% 30.04 in 5.0 mi West 6.9 mph - N/A   Clear
2:15 AM 71.6 °F 44.6 °F 38% 30.04 in 10.0 mi WNW 4.6 mph - N/A   Clear
2:35 AM 71.6 °F 44.6 °F 38% 30.05 in 10.0 mi West 6.9 mph - N/A   Unknown
2:55 AM 69.8 °F 44.6 °F 40% 30.05 in 10.0 mi WNW 4.6 mph - N/A   Clear
3:15 AM 64.4 °F 46.4 °F 52% 30.06 in 10.0 mi Calm Calm - N/A   Unknown
3:35 AM 59.0 °F 48.2 °F 67% 30.06 in 10.0 mi Calm Calm - N/A   Unknown
3:55 AM 60.8 °F 46.4 °F 59% 30.07 in 10.0 mi NW 4.6 mph - N/A   Clear
4:15 AM 68.0 °F 42.8 °F 40% 30.07 in 10.0 mi WNW 5.8 mph - N/A   Unknown
4:35 AM 68.0 °F 42.8 °F 40% 30.07 in 10.0 mi WNW 5.8 mph - N/A   Unknown
4:55 AM 66.2 °F 42.8 °F 43% 30.08 in 10.0 mi WNW 4.6 mph - N/A   Unknown
5:15 AM 66.2 °F 44.6 °F 46% 30.08 in 10.0 mi Calm Calm - N/A   Unknown
5:35 AM 66.2 °F 42.8 °F 43% 30.08 in 10.0 mi WNW 6.9 mph - N/A   Unknown
5:55 AM 66.2 °F 41.0 °F 40% 30.09 in 10.0 mi WNW 9.2 mph - N/A   Unknown
6:15 AM 66.2 °F 42.8 °F 43% 30.09 in 10.0 mi WNW 5.8 mph - N/A   Clear
6:35 AM 66.2 °F 41.0 °F 40% 30.10 in 10.0 mi WNW 4.6 mph - N/A   Clear
6:55 AM 66.2 °F 42.8 °F 43% 30.11 in 10.0 mi NW 5.8 mph - N/A   Clear
7:15 AM 62.6 °F 46.4 °F 55% 30.12 in 10.0 mi Calm Calm - N/A   Clear
7:35 AM 64.4 °F 44.6 °F 49% 30.12 in 10.0 mi Calm Calm - N/A   Clear
7:55 AM 66.2 °F 44.6 °F 46% 30.13 in 10.0 mi WNW 3.5 mph - N/A   Clear
8:15 AM 68.0 °F 42.8 °F 40% 30.13 in 10.0 mi NW 3.5 mph - N/A   Clear
8:35 AM 71.6 °F 42.8 °F 35% 30.13 in 10.0 mi Calm Calm - N/A   Clear
8:55 AM 71.6 °F 41.0 °F 33% 30.14 in 10.0 mi NW 4.6 mph - N/A   Clear
9:15 AM 73.4 °F 42.8 °F 33% 30.14 in 10.0 mi NW 3.5 mph - N/A   Clear
9:35 AM 75.2 °F 41.0 °F 29% 30.14 in 10.0 mi NW 6.9 mph - N/A   Clear
9:55 AM 75.2 °F 42.8 °F 31% 30.14 in 10.0 mi NW 5.8 mph - N/A   Clear
10:15 AM 77.0 °F 44.6 °F 32% 30.13 in 10.0 mi NW 9.2 mph - N/A   Clear
10:35 AM 80.6 °F 44.6 °F 28% 30.13 in 10.0 mi NW 6.9 mph - N/A   Clear
10:55 AM 80.6 °F 46.4 °F 30% 30.12 in 10.0 mi NNW 8.1 mph - N/A   Clear
11:15 AM 82.4 °F 46.4 °F 28% 30.12 in 10.0 mi NW 8.1 mph - N/A   Clear
11:35 AM 84.2 °F 46.4 °F 27% 30.11 in 10.0 mi NW 6.9 mph - N/A   Clear
11:55 AM 84.2 °F 46.4 °F 27% 30.11 in 10.0 mi NW 8.1 mph - N/A   Clear
12:15 PM 86.0 °F 44.6 °F 23% 30.11 in 10.0 mi WNW 9.2 mph - N/A   Clear
12:35 PM 87.8 °F 46.4 °F 24% 30.11 in 10.0 mi NW 8.1 mph - N/A   Clear
12:55 PM 89.6 °F 46.4 °F 22% 30.10 in 10.0 mi WNW 6.9 mph - N/A   Clear
1:15 PM 89.6 °F 46.4 °F 22% 30.09 in 10.0 mi NW 9.2 mph - N/A   Clear
1:35 PM 91.4 °F 46.4 °F 21% 30.09 in 10.0 mi NW 8.1 mph - N/A   Clear
1:55 PM 93.2 °F 46.4 °F 20% 30.08 in 10.0 mi NNW 8.1 mph - N/A   Clear
2:15 PM 93.2 °F 44.6 °F 19% 30.07 in 10.0 mi NW 8.1 mph - N/A   Clear
2:35 PM 95.0 °F 33.8 °F 12% 30.07 in 10.0 mi North 9.2 mph - N/A   Clear
2:55 PM 96.8 °F 32.0 °F 10% 30.06 in 10.0 mi NNW 9.2 mph - N/A   Clear
3:15 PM 95.0 °F 24.8 °F 8% 30.06 in 10.0 mi NNW 5.8 mph - N/A   Clear
4:15 PM 96.8 °F 26.6 °F 8% 30.03 in 10.0 mi WNW 3.5 mph - N/A   Clear
4:35 PM 98.6 °F 24.8 °F 7% 30.02 in 10.0 mi NNW 8.1 mph - N/A   Clear
4:55 PM 96.8 °F 23.0 °F 7% 30.02 in 10.0 mi North 5.8 mph - N/A   Clear
5:15 PM 98.6 °F 21.2 °F 6% 30.01 in 10.0 mi NW 9.2 mph - N/A   Clear
5:35 PM 98.6 °F 23.0 °F 7% 30.00 in 10.0 mi NW 9.2 mph - N/A   Clear
5:55 PM 96.8 °F 26.6 °F 8% 30.00 in 10.0 mi NNW 11.5 mph - N/A   Clear
6:15 PM 96.8 °F 28.4 °F 9% 29.99 in 10.0 mi NW 10.4 mph - N/A   Clear
6:35 PM 96.8 °F 26.6 °F 8% 29.98 in 10.0 mi NW 10.4 mph - N/A   Clear
6:55 PM 96.8 °F 26.6 °F 8% 29.98 in 10.0 mi NNW 10.4 mph - N/A   Clear
7:15 PM 95.0 °F 26.6 °F 9% 29.98 in 10.0 mi NW 8.1 mph - N/A   Clear
7:35 PM 95.0 °F 24.8 °F 8% 29.97 in 10.0 mi NNW 8.1 mph - N/A   Clear
7:55 PM 95.0 °F 28.4 °F 9% 29.97 in 10.0 mi NNW 8.1 mph - N/A   Clear
8:15 PM 93.2 °F 32.0 °F 11% 29.97 in 10.0 mi NNW 8.1 mph - N/A   Clear
8:35 PM 93.2 °F 32.0 °F 11% 29.97 in 10.0 mi NNW 4.6 mph - N/A   Clear
8:55 PM 91.4 °F 35.6 °F 14% 29.97 in 10.0 mi NNW 4.6 mph - N/A   Clear
9:15 PM 89.6 °F 37.4 °F 16% 29.97 in 10.0 mi NNW 3.5 mph - N/A   Clear
9:35 PM 89.6 °F 37.4 °F 16% 29.97 in 10.0 mi NNW 4.6 mph - N/A   Clear
9:55 PM 87.8 °F 32.0 °F 14% 29.98 in 10.0 mi North 3.5 mph - N/A   Clear
10:15 PM 82.4 °F 37.4 °F 20% 29.98 in 10.0 mi Calm Calm - N/A   Unknown
10:35 PM 75.2 °F 44.6 °F 34% 29.98 in 10.0 mi ESE 5.8 mph - N/A   Clear
10:55 PM 73.4 °F 44.6 °F 36% 29.99 in 10.0 mi Calm Calm - N/A   Clear
11:15 PM 68.0 °F 46.4 °F 46% 29.99 in 10.0 mi Calm Calm - N/A   Clear
11:35 PM 71.6 °F 46.4 °F 41% 29.99 in 10.0 mi ESE 3.5 mph - N/A   Clear
11:55 PM 68.0 °F 48.2 °F 49% 29.99 in 10.0 mi Calm Calm - N/A   Clear